Date,TemperatureHighF,TemperatureAvgF,TemperatureLowF,DewpointHighF,DewpointAvgF,DewpointLowF,HumidityHigh,HumidityAvg,HumidityLow,PressureMaxIn,PressureMinIn,WindSpeedMaxMPH,WindSpeedAvgMPH,GustSpeedMaxMPH,PrecipitationSumIn
2012-1-1,44.9,37.6,31.8,37.8,28.5,22.0,76,69,66,26.49,26.43,29,16,31,0.00
2012-1-2,31.8,18.4,12.0,22.4,8.4,3.4,73,65,56,26.45,26.33,32,18,33,0.00
2012-1-3,15.2,12.5,10.9,6.4,4.7,3.5,78,71,64,26.59,26.41,35,20,40,0.00
2012-1-4,35.2,24.8,12.0,16.4,9.2,3.2,72,53,34,26.65,26.44,20,8,23,0.00
2012-1-5,39.3,33.8,28.5,23.9,20.7,16.4,74,59,48,26.54,26.42,22,10,22,0.00
2012-1-6,50.1,42.1,35.2,27.1,23.2,18.5,56,48,35,26.54,26.48,19,10,25,0.00
2012-1-8,42.4,41.4,40.8,38.8,37.9,37.5,88,87,86,26.68,26.64,10,6,11,0.02
2012-1-9,46.5,40.8,36.1,43.8,37.4,32.5,91,88,83,26.65,26.50,18,7,18,0.43
2012-1-10,47.4,41.8,35.4,40.8,33.4,29.4,87,73,55,26.56,26.43,22,7,22,0.00
2012-1-11,43.3,41.1,39.9,40.3,37.9,34.0,91,88,74,26.43,26.05,15,5,16,1.89
2012-1-12,44.9,39.3,23.5,42.2,36.3,19.1,91,89,83,26.12,25.96,25,7,28,0.13
2012-1-13,23.5,16.8,15.0,19.1,12.1,9.9,84,82,78,26.39,26.08,26,14,34,0.00
2012-1-14,26.4,21.4,16.3,21.8,15.8,11.9,84,79,68,26.51,26.38,34,10,34,0.00
2012-1-15,28.7,26.0,23.1,23.2,20.4,17.3,87,79,71,26.85,26.47,21,6,22,0.00
2012-1-16,37.0,30.5,23.7,25.8,21.5,16.8,76,69,62,26.83,26.66,16,7,58,0.00
2012-1-17,53.9,45.5,35.9,46.2,37.1,25.4,87,73,61,26.66,26.36,14,6,17,0.87
2012-1-18,44.9,27.9,22.1,40.1,20.9,16.1,83,75,57,26.54,26.39,29,12,30,0.00
2012-1-19,39.0,28.6,19.0,25.6,19.4,13.8,82,69,51,26.52,26.41,13,4,14,0.00
2012-1-20,44.6,38.3,35.4,36.4,29.9,22.5,86,72,57,26.56,26.44,17,6,17,0.39
2012-1-21,46.9,41.9,35.7,44.5,38.9,31.9,91,89,86,26.56,26.33,14,4,15,1.10
2012-1-22,40.1,35.1,32.3,37.4,32.2,29.6,90,89,88,26.67,26.55,13,6,14,0.00
2012-1-23,47.1,40.3,32.1,44.1,37.2,29.5,92,89,83,26.63,26.38,28,7,28,0.39
2012-1-24,48.0,43.1,35.2,42.6,34.3,27.7,85,72,51,26.70,26.47,19,10,20,0.00
2012-1-25,55.5,43.7,34.3,34.3,30.2,24.2,75,60,44,26.73,26.63,18,6,18,0.00
2012-1-26,57.5,49.8,41.5,50.2,43.3,31.7,89,78,63,26.63,26.16,25,6,31,0.16
2012-1-27,53.7,41.4,32.7,50.2,37.3,27.8,89,85,81,26.47,26.13,32,12,32,0.16
2012-1-28,40.6,33.9,28.2,34.0,27.0,15.7,84,76,59,26.64,26.44,27,9,31,0.00
2012-1-29,35.4,29.5,21.9,17.6,14.5,12.9,70,54,41,26.72,26.59,24,8,24,0.00
2012-1-30,45.1,37.7,30.2,23.9,19.7,15.5,57,48,42,26.79,26.62,21,6,22,0.00
2012-1-31,53.9,45.7,37.0,29.5,24.7,20.5,52,44,34,26.79,26.69,16,5,19,0.00
2012-2-1,51.2,48.1,45.3,45.9,37.2,23.3,86,68,39,26.68,26.53,10,2,11,0.25
2012-2-2,48.7,45.1,37.9,43.5,37.1,28.3,89,74,55,26.77,26.48,26,12,27,0.04
2012-2-3,49.1,40.1,30.7,29.5,25.9,21.9,72,58,41,26.87,26.76,14,5,14,0.00
2012-2-4,48.5,43.1,38.8,45.5,35.4,24.8,89,75,57,26.76,26.50,11,2,14,0.14
2012-2-5,49.8,45.0,36.1,46.7,40.8,31.6,90,85,76,26.61,26.44,18,7,21,0.02
2012-2-6,45.3,37.1,31.8,39.5,32.3,28.1,90,83,72,26.65,26.55,17,5,19,0.00
2012-2-7,46.9,36.5,28.7,29.2,25.4,21.8,83,65,48,0.00,40.00,20,8,20,0.00
2012-2-8,35.2,32.3,27.1,29.2,25.4,22.1,84,76,62,26.60,26.52,28,8,28,0.00
2012-2-9,26.9,25.9,25.3,22.7,21.3,20.3,84,83,81,26.58,26.55,23,17,30,0.00
2012-2-11,10.0,9.4,8.7,3.5,2.5,1.7,76,73,72,26.43,26.38,49,26,49,0.00
2012-2-12,23.0,15.0,7.5,11.6,6.5,0.3,76,69,61,26.59,26.42,39,18,39,0.00
2012-2-13,41.7,28.2,16.3,20.7,14.4,9.1,74,58,42,26.62,26.47,23,7,23,0.00
2012-2-14,41.3,36.3,31.2,32.9,26.5,17.2,83,68,50,26.51,26.39,20,6,20,0.00
2012-2-15,57.0,43.0,32.1,35.7,30.4,27.7,84,64,41,26.70,26.51,22,8,22,0.00
2012-2-16,47.1,44.1,41.1,43.1,37.0,28.3,86,77,53,26.67,26.49,24,9,24,0.33
2012-2-17,46.4,41.4,36.8,38.0,31.3,26.5,81,68,51,26.58,26.50,22,10,22,0.00
2012-2-18,55.0,44.9,37.0,36.4,28.8,26.2,68,54,41,26.56,26.44,12,2,12,0.00
2012-2-19,44.4,34.2,28.4,31.9,28.0,24.8,87,79,51,26.45,26.19,15,1,15,0.33
2012-2-20,39.3,30.5,21.9,29.2,22.7,18.1,87,74,48,26.69,26.38,14,2,14,0.02
2012-2-21,44.0,36.3,28.2,32.1,26.9,19.7,75,69,61,26.66,26.40,19,7,19,0.00
2012-2-22,51.4,42.9,38.1,40.8,32.8,25.6,85,68,45,26.42,26.08,39,5,39,0.36
2012-2-23,60.0,52.0,39.0,48.3,44.5,34.8,89,76,56,26.20,26.10,22,6,22,0.00
2012-2-24,64.2,50.7,29.6,50.1,38.8,18.1,79,64,53,26.33,26.08,41,11,41,0.07
2012-2-25,30.9,27.5,24.2,18.2,15.8,13.4,65,61,54,26.68,26.31,41,17,41,0.00
2012-2-26,47.8,33.4,19.4,25.4,18.4,11.6,73,55,25,26.79,26.67,58,6,58,0.00
2012-2-27,50.7,40.5,32.1,39.3,28.8,18.3,78,63,54,26.83,26.75,19,5,19,0.00
2012-2-28,60.6,49.0,38.3,38.5,34.0,27.8,68,57,42,26.84,26.71,18,6,18,0.00
2012-2-29,64.7,53.7,47.6,53.9,47.3,37.5,87,79,65,26.71,26.33,21,6,58,0.61
2012-3-1,56.4,51.7,46.5,51.4,36.2,27.3,86,58,36,26.43,26.30,26,9,30,0.10
2012-3-2,56.8,50.4,42.8,50.7,37.1,25.9,80,61,46,26.43,26.18,22,9,25,0.00
2012-3-3,55.5,42.7,37.9,49.2,32.3,20.1,87,68,42,26.29,26.13,20,8,24,0.35
2012-3-4,37.9,29.9,26.2,22.3,18.6,15.7,74,63,53,26.37,26.18,26,11,30,0.00
2012-3-5,31.6,28.2,23.3,25.8,19.5,14.6,83,70,59,26.81,26.27,32,12,41,0.00
2012-3-6,50.9,35.3,22.2,30.8,20.0,11.6,70,55,39,26.95,26.80,20,6,20,0.00
2012-3-7,54.5,44.7,35.7,40.6,31.3,20.0,72,59,52,26.99,26.86,20,4,20,0.00
2012-3-11,55.9,48.9,46.2,29.8,28.3,27.3,50,45,37,0.00,40.00,14,5,14,0.00
2012-3-12,62.4,51.1,42.6,48.6,39.9,27.4,80,66,50,26.84,26.71,14,6,16,0.00
2012-3-13,65.3,56.8,50.1,52.3,47.4,44.2,88,72,52,26.72,26.65,16,4,16,0.00
2012-3-14,68.9,60.1,51.9,51.7,45.4,40.5,78,60,41,26.79,26.69,10,4,12,0.00
2012-3-15,70.5,58.7,51.6,54.5,45.2,39.0,78,61,51,26.81,26.73,22,3,39,0.08
2012-3-17,67.1,60.4,53.7,53.3,50.7,46.0,82,71,59,26.77,26.71,15,4,15,0.00
2012-3-18,66.0,56.5,50.1,55.5,49.7,46.3,89,79,60,26.82,26.71,14,5,15,0.04
2012-3-19,72.1,61.9,52.8,53.6,49.5,46.7,85,66,43,26.76,26.66,14,4,17,0.00
2012-3-20,61.5,58.8,57.3,49.8,48.8,48.0,72,70,63,26.70,26.67,6,0,6,0.00
2012-3-23,71.2,63.7,57.3,56.3,54.3,53.2,89,73,56,26.61,26.49,16,6,16,0.11
2012-3-24,63.1,53.5,45.3,54.1,49.3,42.0,91,86,65,26.49,26.31,14,4,14,0.73
2012-3-25,51.6,47.2,44.2,47.4,43.9,40.8,90,88,84,26.43,26.28,22,10,24,0.27
2012-3-26,58.6,52.3,47.6,46.7,42.5,35.2,84,70,53,26.62,26.42,28,14,28,0.00
2012-3-27,64.9,49.9,36.8,39.7,33.1,25.6,68,53,38,26.74,26.62,13,6,13,0.00
2012-3-28,68.1,57.4,45.5,50.9,43.9,33.6,69,61,50,26.69,26.46,22,8,28,0.00
2012-3-29,66.9,60.0,54.5,50.8,43.9,35.4,80,57,39,26.52,26.43,28,12,32,0.02
2012-3-30,69.6,55.4,49.2,47.7,37.6,34.4,58,51,44,26.54,26.49,11,4,11,0.00
2012-3-31,52.3,51.4,50.0,47.3,44.8,42.0,83,78,72,26.40,26.36,12,3,12,0.24
2012-4-1,63.3,52.6,43.8,47.3,44.1,39.9,87,74,50,26.42,26.31,20,9,22,0.00
2012-4-2,65.8,58.4,53.6,56.3,50.0,41.7,90,75,50,26.50,26.26,28,10,32,0.15
2012-4-3,75.5,59.2,48.9,59.2,47.3,35.4,84,65,50,26.54,26.40,14,4,15,0.04
2012-4-4,70.8,59.5,52.3,56.6,50.7,45.3,85,73,58,26.44,26.28,18,6,18,0.16
2012-4-5,64.5,52.4,44.6,58.2,48.1,40.9,90,86,73,26.32,26.26,16,4,16,0.69
2012-4-6,57.0,47.9,41.0,41.3,35.3,25.5,87,64,41,26.61,26.32,17,4,18,0.00
2012-4-7,59.1,53.9,44.4,25.3,23.3,21.7,47,31,25,26.68,26.61,14,7,14,0.00
2012-4-8,62.7,57.2,49.1,38.3,34.2,29.0,47,42,36,26.62,26.51,23,14,26,0.00
2012-4-9,59.5,49.8,41.5,31.4,27.7,22.4,51,43,30,26.54,26.40,23,11,28,0.00
2012-4-10,56.4,50.2,43.5,31.7,25.9,18.5,44,39,30,26.43,26.33,31,15,35,0.00
2012-4-11,43.3,35.7,31.6,21.5,18.1,14.3,56,49,39,26.60,26.38,30,16,35,0.00
2012-4-12,55.7,41.4,28.7,29.1,22.7,17.6,68,49,31,26.67,26.57,18,7,19,0.00
2012-4-13,63.1,48.9,36.6,33.0,26.8,21.1,55,43,28,26.73,26.59,12,3,12,0.00
2012-4-14,69.0,55.3,45.3,44.2,34.6,26.9,53,46,36,26.77,26.65,12,3,14,0.00
2012-4-15,80.2,63.4,52.5,53.9,45.8,38.5,70,54,36,26.70,26.63,16,3,16,0.00
2012-4-16,78.6,66.4,56.3,54.2,51.2,48.2,81,60,38,26.69,26.63,20,4,20,0.00
2012-4-17,70.5,58.1,46.7,53.3,49.3,41.8,85,74,48,26.75,26.66,14,5,15,1.00
2012-4-18,48.5,46.8,45.3,44.6,43.0,41.7,89,87,82,26.71,26.57,13,2,13,1.17
2012-4-19,67.1,53.1,45.1,54.3,47.0,42.0,92,80,62,26.58,26.51,13,3,16,0.00
2012-4-20,67.8,57.4,50.1,54.5,49.0,44.8,83,74,59,26.54,26.39,11,2,13,0.00
2012-4-21,69.0,57.2,50.3,52.6,49.4,46.1,86,76,52,26.41,26.30,16,2,16,0.12
2012-4-22,51.0,43.8,33.6,47.2,40.0,29.7,90,86,81,26.31,26.10,22,8,25,0.06
2012-4-23,33.6,31.7,30.0,29.7,27.0,24.9,86,83,79,26.12,26.02,32,18,33,0.00
2012-5-4,71.4,67.2,60.6,57.9,56.7,55.1,82,69,61,26.58,26.53,32,5,32,0.00
2012-5-5,60.4,60.3,60.0,55.6,55.3,54.9,84,83,82,26.53,26.53,4,2,4,0.00
2012-5-8,66.3,58.0,0.0,59.5,53.5,-5.5,88,85,77,26.49,26.42,7,1,10,0.04
2012-5-12,68.3,61.1,51.4,53.4,49.9,40.7,76,67,57,26.83,26.75,7,0,7,0.00
2012-5-13,58.8,55.5,0.0,51.9,49.6,-5.2,87,81,76,26.77,26.61,6,1,8,0.22
2012-5-14,63.1,58.4,53.7,60.1,54.9,49.9,91,88,85,26.61,26.48,2,0,3,1.07
2012-5-15,69.6,59.0,52.7,60.8,54.4,49.5,92,85,72,26.56,26.51,2,0,2,0.77
2012-5-16,61.5,55.3,52.1,57.6,51.7,48.8,91,88,85,26.56,26.52,0,0,0,0.00
2012-5-18,64.2,60.4,57.5,55.4,53.4,51.7,81,78,73,26.66,26.63,0,0,0,0.00
2012-5-19,70.8,60.9,48.7,55.5,49.8,43.1,87,68,50,26.70,26.64,0,0,0,0.00
2012-5-20,75.9,63.7,54.5,53.2,48.9,45.6,75,60,42,26.72,26.63,0,0,0,0.00
2012-5-21,73.5,64.7,57.7,55.6,52.4,48.8,77,65,49,26.63,26.48,0,0,0,0.10
2012-5-22,68.1,58.3,53.2,59.9,53.8,49.4,90,85,72,26.51,26.42,0,0,0,0.21
2012-5-23,65.6,59.9,56.4,59.6,55.4,52.9,89,85,78,26.51,26.41,0,0,0,0.12
2012-5-24,69.2,62.0,56.8,62.3,56.8,52.9,90,83,72,26.62,26.49,0,0,0,0.20
2012-5-25,79.7,68.7,58.1,63.1,57.9,53.6,88,70,46,26.73,26.63,0,0,0,0.00
2012-5-26,81.1,70.5,62.2,62.9,59.4,55.4,81,69,53,26.77,26.69,0,0,0,0.00
2012-5-27,85.2,72.5,64.9,66.9,61.2,58.2,80,69,50,26.74,26.66,0,0,0,0.00
2012-5-28,84.0,70.6,63.1,67.2,61.1,57.7,86,73,55,26.68,26.58,0,0,0,0.02
2012-5-29,67.8,67.8,67.8,60.7,60.7,60.7,78,78,78,0.00,40.00,0,0,0,0.00
2012-6-10,71.9,66.0,0.0,58.7,54.9,-6.6,77,68,58,26.70,26.66,7,0,7,0.00
2012-6-11,69.8,64.4,60.2,64.5,59.5,54.5,88,84,77,26.70,26.57,1,0,1,0.18
2012-6-12,74.4,67.5,62.4,65.8,61.6,58.5,91,82,69,26.57,26.50,3,0,4,0.02
2012-6-13,72.6,68.0,61.8,61.2,56.8,53.1,86,68,55,0.00,40.00,7,1,8,0.00
2012-6-14,75.3,63.3,55.9,59.5,53.3,48.4,77,70,57,26.73,26.63,6,1,6,0.00
2012-6-15,76.2,66.0,59.1,61.9,56.0,53.0,82,71,56,26.79,26.69,7,1,7,0.00
2012-6-16,64.4,59.9,57.7,54.5,52.3,51.2,79,76,70,26.82,26.77,0,0,0,0.00
2012-6-17,66.0,65.2,64.5,59.0,58.6,58.2,80,79,77,26.64,26.62,1,0,1,0.00
2012-6-18,64.2,63.6,63.1,58.2,57.8,57.5,82,82,80,26.63,26.61,0,0,1,0.00
2012-6-19,84.3,75.8,63.1,66.4,62.9,58.2,84,65,53,26.77,26.74,3,0,3,0.00
2012-6-20,71.7,70.6,69.0,60.7,60.6,60.6,75,71,68,26.77,26.71,0,0,0,0.00
2012-6-21,69.0,27.6,0.0,62.2,23.3,-4.0,83,81,79,26.59,26.59,0,0,0,0.19
2012-6-22,77.5,68.5,0.0,66.8,60.7,-8.3,86,76,62,26.59,26.50,6,0,6,0.00
2012-6-23,84.2,70.0,59.3,65.0,60.1,55.5,89,73,50,26.60,26.52,0,0,0,0.00
2012-6-24,81.6,80.6,79.5,68.7,67.8,66.9,67,65,63,26.61,26.60,1,0,1,0.00
2012-6-29,87.4,77.5,0.0,65.3,58.1,-9.2,65,52,46,26.59,26.50,11,2,11,0.00
2012-6-30,93.0,79.2,0.0,69.6,62.6,-8.3,70,58,42,26.58,26.51,29,1,29,0.00
2012-7-1,84.9,77.8,0.0,67.6,62.1,-14.3,68,59,50,26.69,26.56,8,0,8,0.00
2012-7-2,77.7,71.0,61.7,64.8,61.5,55.4,83,72,62,26.71,26.60,19,3,19,0.45
2012-7-3,83.4,72.2,65.1,68.1,63.1,59.7,85,74,58,26.68,26.59,6,0,7,0.02
2012-7-4,78.6,71.8,63.1,66.9,62.0,56.3,83,72,61,26.65,26.58,7,0,7,0.00
2012-7-5,82.4,70.2,64.0,69.8,62.0,57.1,84,76,61,26.65,26.58,11,1,11,0.00
2012-7-6,84.7,83.3,82.5,68.5,67.1,66.0,60,58,57,26.64,26.63,0,0,0,0.00
2012-7-11,65.4,63.1,61.5,61.1,58.8,56.9,87,86,85,26.72,26.67,0,0,0,0.64
2012-7-12,64.0,61.5,58.8,60.4,57.6,54.9,89,87,85,26.75,26.69,0,0,0,0.16
2012-7-13,71.7,64.5,61.5,67.1,61.4,58.2,92,90,82,26.76,26.71,0,0,0,0.14
2012-7-14,76.2,69.6,65.4,70.5,64.9,62.3,91,85,76,26.79,26.73,0,0,0,0.00
2012-7-15,83.4,72.2,64.5,70.5,65.1,60.8,89,79,63,26.79,26.69,0,0,0,0.00
2012-7-16,75.3,68.8,64.7,68.8,64.2,61.5,92,85,77,26.73,26.59,0,0,0,0.00
2012-7-17,84.7,71.6,64.7,72.1,65.1,61.8,91,81,60,26.65,26.57,0,0,0,0.00
2012-7-18,80.7,69.3,0.0,71.1,63.0,-5.2,88,81,67,26.65,26.57,0,0,0,0.00
2012-7-19,78.0,69.4,64.2,69.0,63.9,61.1,91,83,69,26.67,26.58,0,0,0,0.04
2012-7-20,72.5,70.7,67.1,65.2,63.8,62.4,88,79,75,26.60,26.55,0,0,0,0.00
2012-7-21,79.3,71.1,64.9,68.5,64.0,60.6,91,79,65,26.69,26.56,0,0,0,0.00
2012-7-22,75.0,70.6,67.1,69.7,65.2,62.4,91,83,78,26.79,26.68,0,0,0,0.16
2012-7-23,76.6,70.8,62.9,68.3,64.5,59.1,90,81,72,26.79,26.68,0,0,14,0.00
2012-7-24,73.7,67.5,62.6,67.9,63.9,59.2,91,88,81,26.69,26.52,18,1,18,0.82
2012-7-25,76.4,69.8,63.3,70.2,65.7,60.4,93,87,80,26.61,26.55,11,1,19,0.27
2012-7-26,80.4,73.8,66.7,69.1,66.6,63.6,92,79,64,26.58,26.48,9,1,9,0.00
2012-7-27,79.5,72.9,68.0,69.1,66.0,63.3,87,79,67,26.60,26.48,8,1,9,0.02
2012-7-28,77.5,70.4,62.7,65.1,62.1,58.1,88,76,63,26.64,26.57,0,0,0,0.00
2012-7-29,79.7,69.8,60.0,64.1,59.9,54.6,85,72,57,26.65,26.58,0,0,0,0.00
2012-7-30,84.3,73.0,65.3,68.2,62.7,58.2,82,71,56,26.64,26.57,0,0,0,0.00
2012-7-31,75.5,69.4,65.3,67.3,62.6,59.5,85,79,71,26.61,26.51,0,0,0,0.14
2012-8-1,78.6,68.9,60.6,68.3,61.8,56.7,89,79,61,26.56,26.49,0,0,0,0.04
2012-8-2,82.5,71.7,62.7,66.8,61.4,57.6,90,72,50,26.57,26.51,0,0,0,0.14
2012-8-3,86.3,71.1,0.0,73.2,62.7,-5.0,83,75,59,26.67,26.55,4,0,4,0.00
2012-8-4,79.8,71.4,66.7,69.1,64.0,61.7,85,78,65,26.77,26.65,6,0,8,0.02
2012-8-5,80.2,69.9,64.5,70.8,64.0,60.6,88,82,68,26.79,26.71,9,0,9,4.23
2012-8-6,72.8,67.9,64.2,67.4,63.4,59.9,91,86,79,26.73,26.64,0,0,0,0.00
2012-8-7,76.8,70.1,63.6,70.0,65.1,60.9,92,84,76,26.66,26.58,0,0,0,0.00
2012-8-8,77.5,71.1,64.9,67.9,63.4,61.3,91,78,60,26.64,26.58,3,0,4,0.00
2012-8-9,80.4,69.7,64.9,71.8,63.1,58.9,84,80,72,26.62,26.46,1,0,3,0.18
2012-8-10,74.4,65.9,61.7,65.2,60.6,57.9,89,83,71,26.46,26.41,5,0,5,0.04
2012-8-12,73.2,69.1,63.6,59.1,56.1,54.3,73,63,56,26.64,26.58,0,0,0,0.00
2012-8-13,80.7,68.8,59.5,66.4,58.7,52.8,83,71,57,26.65,26.55,2,0,2,0.00
2012-8-14,66.7,62.4,59.9,58.7,56.2,53.7,84,80,75,26.59,26.55,0,0,0,0.10
2012-8-15,65.8,41.3,0.0,60.1,38.3,0.0,87,83,79,26.57,26.55,4,1,4,0.07
2012-8-16,81.3,71.5,56.1,63.5,58.5,51.9,86,65,51,26.65,26.55,0,0,1,0.00
2012-8-17,67.8,64.1,0.0,60.8,58.1,-4.0,84,81,76,26.56,26.49,7,0,7,0.01
2012-8-19,71.7,69.7,67.2,62.2,60.8,59.7,77,73,71,26.45,26.44,0,0,0,0.00
2012-8-20,64.9,60.9,58.8,58.0,56.4,55.2,89,85,74,26.52,26.46,0,0,0,0.00
2012-8-23,67.2,66.0,65.1,60.2,59.3,58.6,81,79,77,26.73,26.71,0,0,0,0.00
2012-8-24,82.0,67.0,58.2,67.6,59.4,53.7,88,77,57,26.75,26.69,0,0,0,0.02
2012-8-25,77.3,67.0,0.0,63.4,55.8,-8.0,83,68,54,26.75,26.69,0,0,0,0.00
2012-8-26,73.9,67.0,55.5,62.1,57.4,51.0,89,72,54,26.76,26.69,0,0,0,0.00
2012-8-27,83.4,69.7,57.9,67.8,59.6,52.5,84,71,51,26.76,26.63,0,0,0,0.00
2012-8-28,80.4,70.5,61.7,65.7,59.6,53.1,77,69,55,26.66,26.56,0,0,0,0.00
2012-8-29,80.7,71.7,63.1,64.0,61.1,57.3,83,70,53,26.64,26.56,0,0,0,0.00
2012-8-30,83.6,72.3,64.0,70.1,63.7,57.9,82,75,63,26.76,26.61,0,0,0,0.00
2012-8-31,80.4,72.0,64.4,68.3,63.7,59.9,87,76,63,26.83,26.73,0,0,0,0.00
2012-9-1,80.4,71.8,66.3,69.5,64.4,61.3,85,78,66,26.79,26.69,0,0,0,0.00
2012-9-2,78.6,71.0,66.3,69.9,64.5,61.3,87,80,70,26.69,26.56,0,0,0,0.00
2012-9-3,76.6,69.7,66.7,68.1,64.4,62.2,88,83,74,26.61,26.55,0,0,0,0.16
2012-9-4,69.9,67.2,65.6,66.2,63.3,61.6,89,87,86,26.58,26.52,0,0,0,0.06
2012-9-5,72.5,68.0,65.4,68.3,64.4,62.4,92,88,80,26.56,26.48,0,0,0,1.76
2012-9-6,73.0,68.0,64.0,65.6,63.4,61.6,92,86,75,26.59,26.50,0,0,0,0.00
2012-9-7,85.4,70.6,59.9,71.6,63.2,56.3,91,79,58,26.60,26.48,0,0,0,0.00
2012-9-8,71.2,64.0,53.2,63.4,58.4,49.7,88,82,71,26.49,26.38,17,0,17,0.00
2012-9-9,62.0,55.6,0.0,50.6,47.4,-4.4,88,75,61,26.60,26.46,7,1,8,0.00
2012-9-10,64.0,58.2,51.9,53.7,49.3,45.6,83,73,61,26.73,26.58,2,0,2,0.00
2012-9-11,72.5,61.0,52.1,58.9,51.6,45.1,78,72,61,26.83,26.73,0,0,0,0.00
2012-9-12,76.6,62.8,52.8,61.2,54.1,47.5,84,74,55,26.89,26.81,0,0,0,0.00
2012-9-13,77.7,62.0,51.4,58.8,52.4,46.4,86,72,50,26.89,26.80,0,0,0,0.00
2012-9-14,69.6,62.0,55.0,58.1,52.9,48.7,82,73,62,26.83,26.74,0,0,0,0.00
2012-9-15,70.8,63.7,56.8,59.2,55.3,51.3,82,74,64,26.77,26.69,0,0,0,0.00
2012-9-16,68.5,63.1,60.4,61.2,57.2,54.7,85,81,76,26.70,26.63,0,0,0,1.16
2012-9-17,63.5,60.7,57.9,60.2,56.9,53.7,91,87,84,26.65,26.43,0,0,0,0.74
2012-9-18,63.8,61.1,57.5,61.2,58.5,54.3,92,91,89,26.42,26.27,16,0,18,2.79
2012-9-21,67.2,62.1,53.2,57.4,54.8,49.7,90,77,67,26.62,26.55,4,0,5,0.00
2012-9-22,69.4,61.2,53.7,58.6,53.5,43.8,86,76,64,26.58,26.50,8,0,11,0.00
2012-9-23,58.4,51.8,46.2,43.7,40.3,34.6,80,66,43,26.66,26.57,7,1,8,0.00
2012-9-24,64.0,53.9,40.6,45.4,39.9,31.9,76,60,41,26.74,26.65,0,0,0,0.00
2012-9-25,64.9,55.2,47.8,50.8,44.6,39.5,80,68,47,26.77,26.67,4,0,7,0.00
2012-9-26,71.9,62.1,55.0,59.1,53.5,48.7,82,74,61,26.77,26.69,1,0,2,0.00
2012-9-27,68.1,62.6,54.6,56.6,54.7,49.9,87,76,64,26.77,26.69,4,0,5,0.00
2012-9-28,65.4,61.6,58.2,59.1,55.9,52.8,85,81,77,26.70,26.58,9,0,9,0.00
2012-9-29,62.4,58.0,51.9,58.7,54.5,49.1,91,88,84,26.59,26.46,0,0,0,0.41
2012-9-30,61.5,53.6,44.4,50.9,46.9,41.7,90,79,60,26.49,26.41,0,0,0,0.00
2012-10-1,54.3,52.3,50.3,51.1,48.9,46.8,92,88,80,26.45,26.38,0,0,3,0.73
2012-10-2,65.8,60.4,53.4,63.5,57.6,51.1,94,90,82,26.54,26.36,10,0,10,1.37
2012-10-3,70.7,63.0,58.8,62.9,57.3,54.3,87,82,72,26.73,26.54,0,0,0,0.00
2012-10-4,63.6,59.0,52.5,55.3,51.4,47.1,88,77,63,26.79,26.71,8,2,9,0.00
2012-10-5,73.9,59.1,49.4,57.2,50.8,44.9,87,75,54,26.77,26.58,4,0,4,0.00
2012-10-6,59.9,55.2,49.2,53.7,50.4,45.8,89,84,78,26.58,26.50,11,2,11,0.00
2012-10-7,49.6,44.8,37.2,46.1,42.0,34.2,91,90,88,26.62,26.48,3,0,5,0.20
2012-10-8,41.5,39.4,36.6,39.1,36.6,33.6,91,90,88,26.68,26.59,0,0,0,0.13
2012-10-9,53.7,45.6,40.4,51.1,42.5,38.0,93,89,81,26.62,26.55,0,0,0,0.00
2012-10-10,50.5,46.4,40.6,45.3,42.0,37.6,91,85,79,26.64,26.52,19,5,19,0.00
2012-10-11,63.1,47.9,33.9,45.1,36.9,29.6,85,67,49,26.74,26.64,11,1,17,0.00
2012-10-12,58.1,50.4,43.7,44.7,39.9,32.6,76,67,59,26.83,26.68,10,3,10,0.00
2012-10-13,57.9,46.9,38.1,43.7,37.9,31.1,78,71,58,26.89,26.80,6,0,7,0.00
2012-10-14,64.9,48.1,0.0,54.5,42.4,-7.4,84,80,69,26.78,26.69,4,0,4,0.00
2012-10-15,59.1,53.8,45.6,53.3,44.0,37.3,88,70,60,26.43,26.35,23,8,23,0.00
2012-10-16,55.2,43.4,0.0,38.2,35.2,-14.7,82,72,49,26.48,26.40,19,5,24,0.00
2012-10-17,63.5,52.5,0.0,43.1,38.0,-8.3,71,59,42,26.47,26.41,8,0,8,0.00
2012-10-18,57.7,55.0,52.7,50.7,49.6,47.6,85,82,77,26.37,26.32,7,1,7,0.00
2012-10-19,58.4,51.5,46.2,47.8,36.5,31.5,85,58,38,26.34,26.22,7,0,8,0.00
2012-10-20,50.9,45.2,0.0,36.3,33.8,0.0,74,64,52,26.47,26.29,8,3,8,0.00
2012-10-21,57.7,45.4,0.0,40.1,35.6,-5.5,84,70,48,26.66,26.48,9,3,12,0.00
2012-10-22,67.8,59.0,46.9,48.4,44.5,38.3,74,59,43,26.74,26.65,9,1,9,0.00
2012-10-23,69.6,60.6,52.5,50.1,46.3,42.4,70,60,48,26.72,26.64,7,0,7,0.00
2012-10-24,71.2,61.6,53.7,50.3,46.5,44.9,74,59,42,26.73,26.65,5,0,5,0.00
2012-10-25,69.6,60.3,53.2,49.9,47.1,43.3,73,63,44,26.70,26.63,8,1,11,0.00
2012-10-26,69.6,60.1,54.3,56.1,50.6,47.5,81,71,55,26.66,26.53,7,1,8,0.00
2012-10-27,64.0,55.0,46.9,53.6,48.4,42.5,86,79,63,26.53,26.35,9,2,9,0.00
2012-10-28,46.7,40.6,32.7,42.5,36.6,29.5,88,86,83,26.38,26.25,19,8,23,0.00
2012-10-29,31.6,30.1,28.2,28.2,27.3,25.7,90,89,86,26.15,25.92,40,22,41,0.12
2012-10-30,31.2,29.3,27.5,27.6,26.3,24.6,90,88,84,26.07,25.83,44,16,44,0.00
2012-10-31,33.2,31.4,30.0,30.7,28.5,27.2,91,89,85,26.24,26.05,25,13,30,0.00
2012-11-1,39.9,35.1,32.3,31.0,28.3,20.9,90,77,50,26.33,26.21,33,14,42,0.00
2012-11-2,46.5,41.4,37.5,33.1,27.0,20.9,66,57,47,26.45,26.30,30,9,32,0.00
2012-11-3,53.2,47.7,36.5,31.2,27.4,22.1,69,46,32,26.56,26.44,12,3,12,0.00
2012-11-4,49.8,44.6,36.6,43.4,35.9,29.3,81,72,48,26.52,26.46,10,4,11,0.04
2012-11-12,56.6,53.3,40.6,51.5,48.1,37.3,88,83,78,26.79,26.66,20,4,20,0.36
2012-11-13,40.6,34.1,0.0,37.3,27.8,-6.8,88,78,59,26.78,26.68,21,11,25,0.00
2012-11-14,41.5,31.9,0.0,31.0,25.3,-6.3,83,77,65,26.83,26.74,10,3,10,0.00
2012-11-19,52.3,45.9,38.4,44.9,40.4,34.6,88,81,73,26.79,26.65,57,3,57,0.00
2012-11-20,51.0,44.2,36.1,38.8,33.9,30.0,88,69,47,26.65,26.55,10,4,10,0.00
2012-11-21,55.0,47.2,41.1,33.0,30.7,28.3,67,53,42,26.67,26.56,13,3,14,0.00
2012-11-22,56.3,46.9,39.0,30.8,28.4,24.5,58,49,36,26.72,26.63,57,1,57,0.00
2012-11-23,53.7,44.6,34.7,40.7,34.3,25.7,83,67,53,26.63,26.41,23,9,29,0.00
2012-11-24,34.5,27.8,21.3,25.7,18.4,14.3,75,68,59,26.49,26.40,31,14,31,0.00
2012-11-25,42.0,32.0,20.3,15.9,13.5,10.1,78,50,28,26.53,26.44,17,6,17,0.00
2012-11-26,51.6,42.8,34.5,29.6,22.0,12.6,48,44,38,26.64,26.51,19,7,19,0.00
2012-11-27,47.4,40.0,34.3,38.6,33.8,27.7,87,79,47,26.65,26.56,14,5,16,0.05
2012-11-28,38.4,33.1,29.6,29.6,24.1,21.3,83,70,51,26.77,26.63,21,9,21,0.00
2012-11-29,47.4,36.6,28.7,25.5,21.8,18.1,74,57,31,26.82,26.75,12,3,13,0.00
2012-11-30,53.7,43.4,35.7,29.1,26.0,23.7,65,51,38,26.79,26.69,9,2,9,0.00
2012-12-1,53.7,45.2,0.0,40.6,36.0,-5.5,81,71,59,26.83,26.74,12,5,16,0.00
2012-12-2,57.3,49.9,43.3,43.9,41.0,36.7,82,72,58,26.79,26.71,10,3,11,0.00
2012-12-3,61.3,54.6,49.6,49.0,45.5,42.6,78,72,63,26.79,26.72,15,6,16,0.00
2012-12-4,59.1,53.9,46.5,47.3,44.1,39.9,78,70,58,26.78,26.65,9,2,9,0.00
2012-12-5,54.3,47.6,37.5,47.0,38.0,26.4,89,70,50,26.70,26.63,13,5,17,0.00
2012-12-6,45.1,38.0,29.1,35.0,28.9,18.7,77,70,62,26.70,26.61,12,5,12,0.00
2012-12-7,56.8,46.2,37.2,48.4,40.3,31.2,87,80,69,26.61,26.48,11,3,11,0.00
2012-12-8,57.9,51.7,47.1,48.2,44.6,42.2,87,77,63,26.54,26.46,12,2,14,0.00
2012-12-9,61.7,53.2,48.0,50.7,46.6,42.0,84,78,65,26.59,26.46,15,4,17,0.00
2012-12-10,54.3,51.9,42.9,49.8,47.5,38.7,87,85,80,26.46,26.21,16,4,16,0.04
2012-12-11,42.6,33.9,28.5,38.5,29.0,24.0,87,82,77,26.58,26.29,18,9,18,0.00
2012-12-12,35.7,31.1,27.1,29.8,26.0,22.8,86,82,76,26.72,26.58,7,1,8,0.00
2012-12-13,43.5,34.5,29.4,27.2,23.8,19.0,81,66,50,26.78,26.67,13,2,13,0.00
2012-12-16,50.1,48.3,42.6,46.6,44.2,38.0,89,86,81,26.48,26.33,13,2,14,0.41
2012-12-17,49.1,46.3,42.9,44.3,42.5,39.3,89,86,80,26.36,26.15,13,5,16,0.06
2012-12-18,42.9,38.2,34.3,39.3,32.0,25.8,88,78,67,26.39,26.15,26,11,36,0.02
2012-12-19,48.2,42.0,35.9,35.8,30.8,24.3,73,64,57,26.58,26.38,19,7,21,0.00
2012-12-20,42.6,37.2,30.9,37.9,31.7,25.5,90,81,69,26.58,26.03,27,10,34,0.45
2012-12-21,30.7,24.0,21.9,25.0,19.6,17.2,87,83,78,26.22,25.97,44,21,47,0.00
2012-12-22,30.5,27.5,19.2,18.3,16.2,13.6,79,62,58,26.53,26.46,25,13,28,0.00
2012-12-26,34.3,31.1,0.0,31.6,28.4,-2.3,91,90,88,26.18,25.97,32,8,33,0.00
2012-12-27,25.8,24.6,23.7,22.7,21.7,20.9,89,89,87,26.48,26.13,44,16,44,0.00
2012-12-28,37.4,28.8,22.2,31.4,25.0,19.2,89,86,78,26.52,26.32,14,4,15,0.00
2012-12-29,32.3,29.4,22.8,29.6,25.9,18.3,90,86,80,26.37,26.15,0,0,0,0.00
2012-12-30,27.1,22.4,19.2,18.8,16.7,14.5,86,79,68,26.76,26.39,0,0,0,0.00
2012-12-31,38.6,32.7,21.2,20.6,15.0,11.2,80,50,36,26.72,26.52,12,2,13,0.00
2013-1-1,44.7,40.3,35.9,41.4,33.9,15.2,90,79,41,26.53,26.40,22,8,23,0.00